Vorticity
3 4 7 11 11 8 9 13 14 10 6 5 2 1 2 4 8 10 2 -3 8 15 9 4 2 4 8 5 1 11 16 6 9 17 3 -3 7 4 3 8 7 5 4 5 12 17 16 12 12 11 7 8 8 8 9 9 7 5 5 4 3 4 4 5 5 4 4 4 4 6 8 9 9 8 8 7 7 7 7 6 6 7 6 6 7 8
6 3 3 8 12 10 7 8 12 13 9 4 2 2 2 2 4 6 5 4 6 7 10 11 6 1 6 7 1 8 15 8 7 6 -2 2 7 2 4 7 7 7 5 3 8 17 16 12 14 14 9 7 8 9 8 8 8 6 5 5 4 4 4 3 3 4 3 3 4 5 8 9 9 9 8 7 7 6 6 6 6 6 6 6 8 8
9 6 4 5 8 11 9 6 7 12 12 8 3 2 3 3 4 3 3 11 15 9 4 6 10 6 3 3 4 5 5 5 7 4 3 3 2 3 5 6 7 5 6 5 4 12 17 13 11 12 11 9 8 9 8 8 8 6 5 5 5 4 3 3 2 3 3 4 5 6 7 8 8 8 8 6 6 6 5 6 6 6 6 6 7 7
11 9 6 4 5 9 11 8 5 7 13 12 7 4 3 3 5 4 -3 -3 5 13 10 4 5 6 7 5 3 3 1 6 9 6 5 2 0 4 2 6 10 4 6 7 4 11 15 14 12 11 10 8 9 10 8 9 8 7 5 4 5 4 3 2 2 3 4 5 7 8 7 8 8 8 7 6 5 5 5 5 5 6 6 7 7 7
11 12 10 6 4 6 9 10 7 5 9 13 13 8 3 3 4 2 3 4 3 4 1 -2 1 1 4 9 10 6 1 4 8 4 3 3 3 3 2 6 5 1 7 5 4 13 14 13 13 11 11 7 6 9 9 9 9 7 6 4 4 4 3 2 2 3 5 6 7 8 8 7 8 7 7 6 5 5 5 5 5 6 6 7 7 7
8 11 11 9 5 3 5 9 10 6 5 9 15 15 6 4 6 -1 -6 -5 9 31 24 -1 -2 3 0 3 8 9 3 0 7 6 3 4 4 3 1 6 5 2 7 4 3 11 13 15 15 11 13 10 6 8 8 8 9 8 6 5 4 3 3 2 3 4 5 6 7 7 7 6 7 7 7 7 6 5 5 5 5 6 7 7 7 7
6 9 10 10 8 5 4 6 9 9 7 5 9 18 14 5 4 4 -2 -20 -23 12 31 14 3 -1 -0 7 6 6 7 6 6 2 1 3 3 5 4 5 6 5 8 6 1 5 9 16 18 16 15 11 7 8 9 7 7 8 7 5 3 2 3 3 4 5 5 6 7 6 7 7 6 7 7 7 6 6 5 5 6 6 6 6 6 7
4 7 8 10 9 6 3 4 7 8 8 7 5 10 15 12 5 2 6 -2 -23 -24 -7 14 24 5 -8 4 7 7 7 5 5 2 6 8 1 1 7 8 4 2 8 8 -1 -1 6 12 17 16 15 13 9 7 9 9 6 7 8 6 4 2 2 4 6 6 5 5 6 6 6 6 6 6 7 7 7 7 7 6 6 6 5 6 6 5
6 5 6 9 11 10 6 2 5 9 7 6 6 7 10 14 13 5 2 2 1 -2 -15 -13 13 19 9 5 5 11 10 2 3 5 3 5 4 2 4 6 4 2 9 10 -1 -2 2 7 15 17 13 12 11 9 9 9 7 7 8 7 5 3 1 3 7 7 5 5 6 5 5 6 6 6 8 8 7 6 7 5 5 6 6 5 6 5
7 7 5 6 8 9 11 7 2 5 8 7 6 7 7 10 13 12 10 3 -1 9 6 -13 -9 11 24 25 8 1 11 8 0 3 5 1 4 8 6 5 4 2 10 10 -3 -3 2 3 11 16 16 14 12 11 10 9 8 6 8 8 5 4 2 2 5 6 5 5 5 5 5 5 5 7 8 8 7 6 6 6 5 6 6 6 7 7
7 7 3 4 9 8 9 11 5 2 5 6 8 8 5 8 14 12 11 13 5 1 8 1 -13 -12 12 37 21 -7 5 20 7 0 7 8 8 9 5 5 6 1 6 11 -1 -4 3 3 7 14 17 17 14 12 11 11 10 8 7 8 7 6 5 4 5 5 5 4 4 5 5 6 6 8 9 7 7 7 5 5 5 6 7 8 9 8
10 11 6 0 4 8 8 8 7 5 4 2 5 10 8 3 9 17 11 10 11 4 4 4 -10 -23 -10 22 28 3 -4 11 19 15 11 12 10 6 6 6 6 6 6 7 -1 -3 3 2 4 12 17 18 15 13 12 12 12 10 8 7 8 8 6 5 5 4 5 4 4 5 5 5 7 8 10 8 7 6 6 6 6 6 7 8 8 8
15 11 10 7 4 4 7 9 8 5 3 4 4 5 11 6 0 10 14 11 13 8 4 6 1 -13 -20 -6 11 13 10 10 17 13 4 11 10 1 10 11 2 5 7 3 -1 -2 3 4 3 8 14 16 16 14 12 11 12 12 10 9 8 8 8 7 5 4 5 4 4 6 5 5 7 8 8 8 7 6 6 6 6 6 7 8 8 8
30 23 9 4 9 8 4 6 8 9 3 1 5 3 6 10 4 4 8 9 12 12 7 5 7 3 -3 -4 -10 -12 3 14 19 13 -8 -3 15 10 10 11 3 3 4 3 4 1 -1 3 6 8 10 13 14 15 12 10 11 12 11 10 9 9 9 7 6 3 3 4 3 5 6 6 7 8 7 7 7 6 6 6 6 6 7 8 8 9
24 49 41 13 6 9 8 8 6 9 9 2 2 7 7 6 4 9 16 14 9 9 13 12 9 5 3 7 -1 -19 -18 -10 10 43 32 0 3 12 8 8 9 7 7 8 5 -1 -0 4 6 7 8 11 11 13 14 12 11 11 11 11 9 10 9 7 7 4 3 4 3 4 6 7 8 7 6 7 7 7 7 6 5 6 7 8 10 10
-8 23 57 52 38 19 1 6 10 6 10 10 0 -3 7 12 -1 -4 14 25 17 7 13 21 18 11 3 4 5 -4 -6 -16 -27 5 31 11 -1 10 12 14 13 4 4 11 4 -4 1 6 5 6 7 10 9 10 15 16 14 12 10 10 10 9 9 8 6 5 4 3 3 4 5 6 7 6 4 6 7 7 7 6 6 5 6 10 11 10
-8 -12 18 40 61 62 23 1 8 7 6 20 24 2 -5 12 8 -10 -3 14 15 6 11 24 27 21 9 3 8 7 6 5 -12 -15 3 5 -1 2 2 5 13 6 -2 2 3 -0 2 4 5 7 6 7 8 9 13 16 17 16 12 10 10 9 9 8 7 5 4 4 4 4 5 6 6 5 5 5 7 7 6 6 6 4 6 11 11 8
6 -7 -4 -8 13 56 56 22 12 12 -7 -4 39 44 8 6 16 -1 -5 10 10 -2 -2 11 24 33 30 13 5 8 8 9 6 3 6 6 -1 -5 -6 -5 3 7 4 2 4 2 2 5 5 5 6 5 6 7 9 12 15 18 17 12 9 10 10 9 7 6 4 4 5 5 6 6 6 5 5 4 6 7 6 6 6 4 7 11 9 7
14 4 7 -5 -19 5 41 46 35 31 4 -34 -5 51 45 25 24 3 -12 2 9 7 8 4 -3 8 31 37 19 6 6 10 10 9 8 10 9 4 3 4 -2 -3 3 6 8 5 1 4 6 6 6 4 3 5 5 6 10 16 20 18 12 10 10 10 7 5 4 3 4 5 6 6 5 4 4 4 6 6 6 7 6 5 7 9 8 7
19 14 12 2 -14 -12 13 36 38 40 45 1 -42 -9 35 45 44 27 2 -6 -9 -3 19 29 12 -6 -2 17 25 17 8 5 8 15 15 10 10 10 6 7 3 -3 -2 1 9 10 1 -0 6 6 6 5 3 4 4 3 5 8 15 20 19 13 10 11 10 7 5 3 2 4 6 6 5 4 3 4 5 6 6 6 6 6 8 9 8 6
9 15 20 5 -6 1 -2 3 17 14 32 43 -5 -40 -18 16 35 37 33 25 -5 -31 -14 21 31 26 23 17 13 15 16 14 8 9 17 16 11 11 9 8 7 2 -0 0 4 8 4 2 5 6 4 3 2 1 2 4 2 2 6 13 21 21 14 10 12 11 8 5 2 2 5 7 5 3 3 4 5 7 6 6 6 7 8 9 8 6
9 9 20 12 2 20 18 10 26 18 5 36 44 -2 -31 -11 16 20 29 49 34 -13 -32 -11 4 16 45 58 43 25 10 10 16 10 9 15 13 9 8 9 9 4 4 6 4 7 12 6 1 4 2 -1 2 3 3 4 3 3 3 6 13 23 22 14 11 12 11 8 5 3 3 6 6 4 3 4 5 5 5 5 6 6 8 9 7 4
13 6 11 10 -5 1 11 6 20 28 7 10 42 30 -11 -8 15 10 9 32 48 28 -9 -18 -15 -18 -1 18 26 40 33 12 12 12 7 12 13 10 9 10 9 4 4 9 5 6 14 7 -2 2 4 -1 -0 3 1 2 3 4 3 3 6 15 23 20 13 10 11 10 9 6 4 4 5 5 4 4 5 5 4 4 5 5 7 8 6 4
11 7 6 11 5 -7 -13 -12 -4 4 -5 -13 13 27 2 -4 7 6 13 18 28 44 31 6 -13 -28 -10 10 1 10 27 19 12 9 7 12 13 8 8 10 10 6 5 9 8 6 11 7 -0 -0 3 2 -1 -0 2 3 3 4 4 4 5 8 16 22 19 12 10 11 11 9 6 5 5 5 5 4 5 6 4 4 4 5 5 6 7 5
5 8 5 -0 9 10 -0 5 12 10 7 -3 -3 7 3 -2 -7 -8 11 13 3 18 33 37 24 -19 -31 8 32 28 14 6 15 19 14 14 11 7 10 12 11 9 7 6 5 8 10 6 3 2 2 3 2 1 4 5 4 4 5 5 5 6 9 17 22 19 11 9 10 10 8 7 6 5 5 5 5 6 6 5 4 4 4 5 6 6
1 4 12 3 0 6 6 16 20 16 25 24 12 11 9 3 -3 -7 2 10 10 8 -3 9 42 30 -19 -31 11 50 35 1 5 24 25 15 6 6 10 12 11 8 8 9 5 5 8 7 5 4 1 0 2 3 4 6 5 4 4 5 4 5 5 9 17 22 18 11 9 10 10 9 8 7 6 5 5 5 6 6 6 5 5 5 5 6
8 -1 5 8 3 -2 -2 8 10 1 2 10 9 9 8 12 17 10 -3 -3 12 18 -2 -11 13 43 43 4 -19 10 28 7 -2 14 28 23 13 8 7 10 13 7 4 12 13 5 3 6 4 -0 -1 0 2 4 5 5 6 4 4 5 3 4 6 5 9 18 21 17 12 10 11 10 9 9 8 7 6 5 6 6 7 6 5 5 5 5
19 10 6 6 4 -0 -4 -1 8 9 6 8 7 -1 -2 4 9 17 15 2 6 10 -2 -2 4 6 22 30 20 30 42 25 3 2 17 26 20 12 4 5 12 11 5 8 14 10 3 4 6 3 3 5 5 4 4 5 8 7 4 4 3 5 8 5 5 10 17 20 19 14 11 10 11 10 9 9 7 6 5 5 7 8 6 6 5 5
27 18 13 10 4 -1 -1 -1 3 13 16 16 14 8 6 -6 -21 6 34 12 3 15 2 -2 17 7 -16 -9 16 34 38 34 20 2 5 18 19 11 3 3 9 13 11 9 10 14 10 4 5 6 6 9 8 4 2 4 9 9 7 5 2 4 9 8 5 7 11 16 21 22 16 11 11 12 11 10 9 8 7 5 6 8 8 7 5 5
38 30 20 17 12 -0 -3 -2 -3 3 10 13 14 9 16 14 -13 -11 20 10 -4 13 9 -5 18 25 -12 -31 -8 14 27 46 41 13 5 15 20 19 9 4 8 8 9 15 13 10 10 6 4 5 7 9 7 4 4 5 7 9 10 8 3 2 7 7 5 6 9 10 15 22 21 16 12 12 12 13 12 10 9 7 6 7 8 9 8 6
38 45 35 24 21 13 3 -2 -5 -2 2 10 19 13 10 25 13 -14 -6 10 6 3 -7 -12 15 33 -1 -34 -24 -11 5 39 42 11 4 12 17 24 17 4 6 4 1 11 16 11 9 7 4 5 7 8 5 4 4 2 3 7 9 10 8 4 4 5 4 6 9 9 9 14 20 21 17 13 12 13 14 13 11 9 7 6 7 9 10 8
21 41 47 36 29 24 15 8 4 6 6 3 11 17 12 16 18 -0 -14 -8 -2 -7 -19 -21 2 22 4 -20 -20 -30 -33 9 39 18 -0 5 13 25 24 11 6 4 1 5 11 14 12 6 5 6 5 6 7 4 3 2 3 6 7 11 14 8 4 6 5 5 7 7 7 9 13 18 21 19 15 12 13 15 14 11 9 7 7 7 10 11
7 17 35 43 44 35 22 16 11 9 13 8 -0 7 16 15 15 16 7 -1 -1 -11 -25 -21 -2 12 7 -6 1 6 -22 -30 2 17 6 3 8 17 26 24 15 9 7 6 8 15 13 4 5 7 4 5 6 2 1 1 2 4 7 12 15 10 6 6 4 4 5 5 6 7 8 12 17 20 19 15 13 13 15 15 12 9 8 7 8 10
5 3 11 26 46 49 34 23 17 9 7 9 1 -0 13 19 19 27 26 14 11 2 -17 -21 -12 -1 4 -17 -21 20 25 -17 -20 10 13 3 2 7 18 23 16 11 9 7 10 16 12 3 4 7 5 6 5 1 -0 -1 0 4 7 11 13 9 5 5 4 4 3 3 4 6 6 9 11 15 19 18 15 13 13 15 15 13 10 8 7 8
8 3 2 5 23 43 42 30 24 19 12 11 6 -3 2 11 12 24 33 18 8 12 6 -3 -10 -7 10 -1 -28 -9 21 12 1 7 8 8 8 7 13 16 12 11 9 6 9 13 11 7 5 5 5 4 3 1 1 -1 1 6 7 8 11 9 4 4 4 4 2 2 3 4 6 8 8 11 16 17 16 15 14 15 16 15 13 11 9 9
16 8 6 6 9 20 31 34 34 30 21 18 15 1 -3 8 7 11 27 24 10 9 9 9 9 6 14 22 7 -11 -10 3 15 12 5 9 11 8 14 19 14 13 12 8 6 7 11 10 7 5 4 4 5 2 -0 -1 1 5 6 6 7 7 5 5 4 3 2 2 2 3 5 7 7 10 14 15 15 14 14 16 17 16 15 14 11 10
21 12 7 10 9 7 13 24 36 46 37 19 14 9 1 8 15 16 28 33 20 13 11 8 9 6 6 17 24 16 1 -7 1 8 4 4 7 7 13 19 16 14 13 11 6 5 7 9 9 6 2 3 7 4 1 1 1 3 6 4 3 4 5 5 5 5 4 3 2 3 5 6 7 9 12 14 14 13 12 15 17 16 15 14 13 12
14 14 13 12 11 8 9 9 18 44 53 23 5 12 10 7 11 11 19 30 26 18 12 9 9 7 7 13 20 28 26 6 -5 3 6 4 6 6 8 16 19 14 10 11 10 7 4 5 9 8 2 3 9 9 5 1 -0 3 7 4 1 2 2 3 5 6 6 5 4 5 6 7 8 8 11 14 15 14 12 12 15 16 15 14 13 13
10 10 11 13 15 12 10 10 11 32 51 35 13 11 9 7 10 7 8 15 24 29 18 4 6 8 3 5 14 22 24 13 2 5 5 3 6 7 6 12 19 18 13 11 10 9 7 6 7 5 0 1 7 10 7 2 2 5 6 4 3 1 -1 1 4 5 6 5 5 7 8 8 8 8 11 14 15 14 12 11 13 14 13 13 12 12
16 14 7 4 14 17 11 10 13 25 40 37 27 20 12 8 7 8 12 9 7 25 31 12 4 9 3 -1 8 16 19 14 8 7 6 3 5 9 9 9 14 19 18 14 11 10 8 8 8 6 4 4 7 11 9 5 6 6 5 7 8 3 -0 3 7 6 5 4 5 6 7 9 10 9 11 13 15 15 12 10 11 12 12 13 12 11
19 24 19 9 10 14 14 12 8 16 32 34 29 24 16 15 14 6 11 18 10 13 29 24 9 7 6 4 5 7 11 15 12 6 3 3 4 6 10 11 11 14 17 18 18 15 11 9 6 5 6 6 8 13 13 8 6 5 5 8 10 5 3 5 6 5 4 6 8 7 7 9 10 10 11 13 14 15 13 10 10 12 13 13 12 12
24 21 18 18 17 11 13 17 9 8 23 31 32 22 2 7 29 16 -2 10 16 8 18 32 26 13 6 6 11 10 4 6 11 7 2 3 4 3 7 12 11 10 13 15 17 19 18 13 9 9 11 9 8 12 15 12 8 6 8 11 11 5 1 3 5 4 5 9 9 6 6 10 11 10 11 13 14 16 14 11 10 11 13 14 14 14
30 24 14 16 24 20 14 13 10 11 17 22 33 30 1 -2 27 25 2 8 16 2 -0 17 29 30 18 4 8 19 13 -0 0 5 3 3 5 4 4 9 11 10 11 13 14 17 20 18 15 13 13 13 12 11 12 13 10 8 9 13 13 5 -2 1 5 5 6 10 8 5 6 8 10 12 11 11 14 17 15 11 11 12 12 13 14 15
25 25 21 15 18 27 27 14 8 14 14 11 25 31 10 2 20 19 6 16 25 12 5 11 18 31 35 18 3 12 20 10 0 3 6 4 6 8 6 6 10 10 10 13 13 14 18 24 25 21 17 17 16 14 14 16 14 12 11 11 12 6 0 3 6 2 4 8 5 3 6 6 8 13 12 10 15 18 16 13 11 11 11 11 11 12
21 24 32 23 11 22 35 22 8 12 11 6 19 29 14 5 19 18 4 10 21 13 7 13 16 21 33 33 14 5 16 18 5 1 6 5 5 9 9 7 10 12 9 10 12 15 20 24 27 27 25 23 21 19 20 20 19 19 16 10 10 8 1 4 8 3 2 6 4 2 5 5 7 10 10 10 16 18 16 14 12 11 11 11 10 11
14 17 28 31 19 22 38 28 7 9 18 12 13 24 18 5 10 17 9 8 20 19 8 8 12 12 22 33 24 9 12 18 8 2 8 8 4 8 10 9 11 12 8 7 11 17 20 19 17 18 19 20 21 22 21 20 20 20 16 9 10 10 5 4 7 4 1 4 4 2 3 4 6 9 9 10 16 19 17 14 12 11 11 11 10 11
14 13 23 34 23 14 28 35 16 6 19 23 13 13 17 9 7 17 15 6 13 29 32 24 14 10 15 25 27 19 14 14 11 7 8 8 6 7 8 9 11 10 6 7 12 14 14 12 10 11 13 15 18 17 16 16 18 19 16 12 11 10 8 7 7 5 4 4 3 2 3 4 7 9 8 9 14 17 17 15 13 13 14 13 12 12
17 14 25 40 37 15 11 27 30 16 13 20 17 12 14 11 10 18 19 4 -3 11 30 37 28 17 10 10 20 26 18 11 13 14 9 8 9 8 6 7 9 8 6 9 12 10 8 8 8 9 12 15 16 15 14 15 16 16 16 17 18 17 16 13 8 5 5 4 3 3 3 5 7 8 7 8 12 15 17 17 15 14 14 12 10 9
18 10 11 25 41 33 18 24 34 26 15 16 17 15 16 11 9 16 16 6 -2 3 16 31 37 31 14 -1 5 19 19 12 17 18 11 9 8 6 6 9 8 7 8 8 8 7 9 10 9 8 11 13 14 17 19 18 16 15 14 15 20 23 20 13 7 4 5 5 4 4 5 7 8 7 6 6 8 11 14 17 16 14 12 9 7 7
26 23 16 17 25 28 30 39 39 26 19 18 13 14 18 12 7 16 19 8 2 6 12 24 37 40 25 3 -2 8 13 13 20 20 13 11 10 5 5 8 7 6 7 5 6 9 9 7 6 7 8 9 11 16 21 22 19 17 17 17 21 25 21 11 5 4 5 4 3 5 9 10 6 4 6 6 5 8 13 15 14 11 8 7 7 6
23 25 25 27 26 22 26 36 34 24 23 23 12 9 19 16 7 15 23 15 7 7 7 15 31 41 31 8 -3 5 9 9 18 23 15 10 11 6 3 6 7 5 5 4 5 9 8 5 5 7 5 6 10 16 21 21 18 16 16 18 20 21 16 7 2 2 2 2 5 8 10 10 5 2 4 6 4 5 8 11 11 9 7 6 6 5
Height
5844 5845 5847 5851 5857 5861 5864 5865 5869 5873 5873 5871 5873 5876 5879 5882 5884 5885 5885 5885 5886 5887 5887 5887 5887 5888 5888 5888 5891 5892 5892 5893 5894 5896 5896 5895 5897 5899 5900 5902 5903 5904 5904 5905 5906 5907 5908 5909 5911 5912 5913 5915 5916 5917 5919 5921 5923 5924 5925 5926 5928 5929 5930 5931 5932 5933 5933 5934 5935 5936 5937 5938 5939 5939 5940 5941 5942 5942 5943 5943 5944 5944 5944 5945 5945 5945
5840 5841 5845 5851 5855 5857 5858 5860 5864 5866 5866 5867 5869 5873 5876 5879 5881 5883 5883 5883 5884 5886 5886 5887 5886 5886 5887 5887 5888 5890 5891 5893 5894 5895 5895 5894 5895 5897 5899 5900 5902 5904 5904 5904 5905 5906 5908 5909 5911 5912 5913 5915 5916 5917 5919 5920 5922 5924 5925 5926 5928 5929 5930 5931 5932 5933 5933 5934 5935 5936 5937 5938 5939 5940 5941 5942 5943 5943 5944 5944 5945 5945 5946 5946 5946 5947
5835 5838 5844 5849 5851 5852 5853 5856 5859 5860 5862 5864 5866 5870 5873 5877 5879 5881 5882 5881 5882 5884 5885 5885 5885 5885 5886 5886 5887 5889 5891 5893 5894 5894 5893 5892 5893 5896 5898 5899 5901 5904 5903 5903 5904 5905 5907 5908 5909 5911 5913 5914 5915 5917 5918 5920 5921 5923 5925 5926 5928 5929 5930 5931 5932 5933 5934 5934 5935 5936 5938 5939 5940 5941 5942 5943 5943 5944 5945 5945 5946 5946 5947 5947 5948 5948
5832 5836 5842 5845 5846 5848 5849 5852 5854 5856 5858 5860 5863 5867 5870 5874 5876 5878 5880 5880 5881 5881 5882 5883 5884 5885 5885 5884 5885 5888 5889 5891 5892 5892 5890 5890 5892 5895 5896 5897 5900 5902 5903 5903 5903 5904 5906 5907 5909 5910 5912 5913 5914 5916 5918 5920 5921 5923 5925 5926 5927 5929 5930 5931 5932 5933 5934 5935 5936 5937 5938 5939 5940 5941 5942 5943 5944 5945 5945 5946 5947 5947 5948 5948 5949 5949
5829 5834 5838 5839 5841 5843 5845 5847 5850 5853 5855 5857 5860 5864 5866 5870 5872 5876 5878 5880 5880 5878 5879 5881 5882 5882 5882 5883 5884 5886 5889 5890 5890 5890 5888 5889 5891 5894 5895 5896 5898 5900 5901 5902 5903 5904 5905 5906 5908 5909 5910 5912 5914 5915 5917 5919 5921 5922 5924 5925 5927 5928 5929 5931 5932 5933 5935 5936 5937 5938 5939 5940 5941 5942 5942 5943 5944 5945 5946 5947 5948 5948 5949 5949 5950 5950
5824 5829 5832 5832 5834 5838 5840 5843 5847 5850 5852 5854 5857 5860 5863 5865 5867 5871 5874 5876 5877 5874 5875 5879 5879 5879 5880 5881 5883 5885 5887 5888 5888 5888 5888 5888 5891 5893 5895 5896 5898 5899 5900 5901 5903 5903 5904 5906 5907 5908 5910 5912 5913 5914 5915 5917 5919 5921 5923 5924 5926 5927 5929 5930 5932 5933 5935 5936 5937 5938 5939 5940 5941 5941 5942 5943 5944 5945 5946 5947 5948 5949 5950 5950 5951 5951
5818 5823 5825 5825 5829 5833 5836 5839 5842 5845 5848 5850 5853 5857 5858 5859 5861 5865 5868 5870 5871 5872 5874 5876 5876 5878 5879 5879 5881 5883 5884 5885 5885 5886 5887 5888 5889 5891 5893 5895 5897 5899 5899 5900 5902 5903 5904 5905 5907 5908 5910 5911 5912 5913 5914 5916 5918 5920 5922 5923 5925 5927 5928 5930 5932 5933 5935 5936 5937 5938 5939 5940 5940 5941 5942 5943 5944 5945 5947 5948 5949 5949 5950 5951 5952 5952
5813 5818 5819 5819 5825 5828 5831 5835 5838 5842 5844 5845 5848 5851 5852 5854 5857 5860 5863 5864 5866 5868 5871 5873 5873 5875 5876 5877 5879 5881 5882 5883 5883 5884 5886 5887 5888 5889 5891 5893 5895 5897 5897 5898 5899 5900 5902 5905 5906 5908 5910 5911 5912 5912 5913 5915 5917 5919 5921 5923 5924 5926 5928 5930 5931 5933 5935 5936 5937 5938 5939 5940 5941 5941 5942 5944 5945 5946 5947 5948 5949 5950 5951 5951 5952 5952
5807 5813 5815 5815 5820 5823 5826 5831 5835 5837 5839 5841 5844 5845 5847 5850 5852 5856 5858 5859 5862 5864 5866 5869 5870 5871 5873 5875 5877 5878 5879 5881 5881 5882 5884 5886 5887 5888 5890 5891 5892 5894 5895 5896 5897 5898 5900 5904 5906 5907 5909 5909 5911 5912 5913 5915 5916 5918 5920 5922 5923 5925 5927 5929 5931 5933 5934 5935 5936 5937 5939 5940 5941 5942 5943 5944 5945 5946 5947 5948 5949 5950 5951 5951 5952 5953
5801 5808 5810 5808 5813 5819 5823 5828 5831 5832 5834 5838 5840 5839 5843 5847 5850 5852 5853 5856 5859 5858 5859 5864 5868 5870 5871 5871 5873 5874 5876 5878 5879 5881 5882 5884 5886 5887 5889 5889 5890 5892 5894 5896 5896 5896 5899 5903 5905 5906 5908 5909 5911 5912 5913 5914 5915 5917 5919 5921 5923 5925 5927 5929 5931 5932 5933 5935 5936 5937 5938 5940 5941 5942 5944 5945 5946 5947 5947 5948 5949 5950 5951 5952 5952 5953
5795 5800 5802 5802 5808 5815 5819 5823 5825 5825 5829 5834 5835 5835 5839 5845 5847 5848 5849 5853 5853 5850 5854 5860 5864 5868 5868 5867 5869 5872 5874 5875 5878 5880 5880 5881 5884 5886 5888 5888 5889 5892 5894 5896 5895 5894 5898 5902 5904 5906 5908 5909 5911 5912 5913 5915 5916 5917 5919 5920 5922 5924 5926 5928 5930 5931 5933 5934 5936 5937 5938 5939 5941 5942 5944 5945 5946 5947 5947 5948 5949 5950 5951 5952 5952 5953
5790 5793 5796 5797 5801 5808 5812 5815 5817 5820 5824 5829 5830 5831 5835 5841 5844 5843 5845 5847 5844 5844 5851 5858 5860 5862 5861 5863 5867 5871 5872 5874 5876 5879 5878 5879 5881 5883 5886 5888 5889 5891 5892 5892 5892 5892 5896 5901 5903 5905 5907 5909 5910 5912 5913 5915 5916 5918 5919 5920 5922 5924 5926 5928 5929 5930 5932 5934 5935 5937 5938 5939 5941 5942 5943 5945 5946 5946 5947 5948 5949 5950 5951 5951 5952 5953
5784 5788 5792 5793 5795 5801 5806 5809 5811 5814 5818 5823 5826 5827 5830 5836 5838 5838 5840 5840 5839 5843 5849 5854 5856 5855 5855 5861 5866 5868 5871 5873 5874 5876 5877 5879 5880 5881 5884 5886 5887 5889 5889 5890 5890 5892 5895 5899 5903 5905 5906 5908 5910 5911 5913 5914 5916 5918 5919 5920 5922 5923 5925 5927 5928 5930 5931 5933 5935 5936 5937 5939 5940 5942 5943 5944 5945 5946 5947 5948 5949 5950 5951 5952 5953 5953
5779 5783 5787 5788 5789 5794 5800 5805 5806 5809 5814 5818 5821 5822 5825 5831 5833 5834 5836 5837 5839 5843 5847 5851 5852 5850 5852 5859 5863 5864 5868 5872 5872 5873 5875 5878 5878 5878 5881 5883 5884 5887 5888 5889 5890 5892 5894 5898 5902 5904 5905 5907 5909 5910 5912 5913 5915 5917 5918 5920 5921 5923 5925 5926 5928 5929 5930 5932 5934 5935 5937 5938 5940 5941 5942 5943 5945 5946 5947 5948 5949 5950 5951 5952 5953 5954
5776 5779 5781 5783 5785 5789 5796 5801 5803 5806 5810 5813 5817 5820 5820 5825 5830 5832 5835 5836 5839 5842 5844 5846 5846 5846 5849 5856 5861 5863 5864 5868 5872 5871 5872 5876 5877 5876 5877 5881 5883 5885 5886 5887 5889 5890 5893 5897 5901 5903 5904 5906 5908 5909 5910 5912 5914 5916 5917 5919 5921 5922 5924 5926 5927 5928 5930 5931 5933 5934 5936 5938 5939 5940 5942 5943 5944 5945 5946 5947 5949 5950 5951 5952 5953 5954
5771 5776 5780 5781 5781 5784 5790 5796 5799 5802 5805 5808 5813 5815 5815 5821 5828 5831 5833 5835 5839 5841 5841 5840 5840 5844 5849 5852 5858 5860 5860 5864 5867 5866 5867 5872 5874 5874 5875 5879 5882 5883 5884 5885 5887 5889 5892 5896 5900 5902 5904 5905 5906 5908 5910 5911 5913 5915 5916 5918 5919 5921 5923 5924 5926 5927 5929 5930 5931 5933 5935 5937 5939 5940 5941 5942 5944 5945 5946 5947 5948 5949 5950 5952 5953 5954
5764 5770 5775 5775 5774 5778 5784 5790 5794 5797 5801 5805 5809 5810 5812 5818 5825 5827 5828 5831 5834 5836 5837 5837 5838 5842 5846 5848 5852 5855 5858 5861 5861 5861 5865 5869 5871 5871 5874 5877 5880 5881 5882 5884 5886 5889 5892 5896 5899 5900 5902 5904 5905 5907 5909 5910 5912 5913 5915 5916 5918 5920 5922 5923 5925 5926 5928 5929 5931 5932 5934 5936 5937 5939 5940 5942 5943 5944 5945 5946 5947 5948 5950 5952 5953 5954
5757 5763 5765 5767 5770 5773 5777 5781 5785 5789 5796 5802 5805 5808 5810 5814 5819 5821 5823 5826 5829 5830 5833 5835 5837 5839 5841 5843 5847 5849 5853 5857 5858 5861 5865 5868 5868 5870 5873 5875 5877 5879 5881 5884 5887 5888 5890 5894 5897 5899 5901 5903 5904 5906 5907 5909 5910 5912 5913 5915 5917 5919 5921 5922 5924 5925 5926 5928 5930 5931 5933 5935 5936 5938 5939 5941 5942 5943 5944 5945 5947 5948 5950 5951 5952 5953
5753 5758 5761 5764 5767 5769 5771 5773 5778 5784 5789 5795 5802 5805 5806 5808 5811 5814 5816 5820 5824 5826 5829 5832 5834 5837 5837 5838 5842 5845 5849 5855 5858 5861 5864 5866 5867 5869 5872 5874 5875 5877 5879 5882 5885 5886 5887 5891 5895 5898 5900 5901 5903 5904 5906 5908 5909 5910 5912 5913 5915 5917 5919 5920 5921 5923 5925 5927 5929 5931 5932 5934 5935 5936 5938 5939 5941 5942 5944 5945 5946 5948 5949 5950 5951 5953
5749 5753 5755 5758 5761 5763 5766 5769 5773 5779 5783 5789 5795 5798 5799 5802 5807 5810 5812 5816 5820 5824 5827 5830 5831 5834 5835 5835 5838 5841 5845 5851 5856 5859 5863 5865 5866 5868 5870 5872 5874 5876 5877 5880 5883 5885 5886 5889 5893 5897 5898 5900 5901 5903 5905 5906 5907 5909 5910 5912 5914 5915 5917 5919 5920 5922 5924 5925 5927 5929 5931 5933 5934 5935 5936 5938 5940 5941 5943 5944 5945 5947 5948 5950 5951 5952
5744 5746 5749 5753 5754 5756 5761 5763 5767 5773 5778 5784 5788 5788 5791 5796 5801 5806 5808 5812 5817 5820 5824 5828 5830 5832 5833 5833 5834 5838 5842 5847 5852 5856 5859 5862 5864 5865 5867 5870 5872 5874 5876 5878 5880 5883 5885 5887 5891 5895 5897 5898 5899 5901 5903 5904 5906 5907 5909 5910 5912 5914 5916 5918 5919 5921 5923 5924 5926 5928 5930 5932 5933 5934 5935 5937 5938 5940 5942 5943 5944 5946 5947 5949 5950 5952
5735 5739 5743 5746 5747 5749 5757 5762 5765 5768 5774 5780 5784 5785 5788 5793 5798 5802 5804 5807 5812 5815 5819 5824 5828 5832 5833 5830 5830 5834 5839 5844 5848 5854 5857 5859 5861 5862 5863 5868 5870 5871 5873 5877 5879 5882 5885 5887 5889 5892 5894 5896 5897 5899 5901 5903 5904 5906 5908 5910 5911 5913 5914 5916 5918 5920 5922 5923 5925 5927 5928 5930 5931 5932 5933 5935 5937 5939 5940 5942 5943 5945 5947 5948 5949 5951
5729 5735 5737 5740 5742 5744 5750 5757 5759 5761 5767 5774 5778 5781 5785 5790 5794 5797 5800 5805 5808 5810 5814 5818 5824 5830 5828 5825 5825 5829 5834 5840 5845 5850 5854 5856 5859 5859 5861 5865 5867 5868 5872 5876 5878 5881 5884 5887 5888 5889 5892 5894 5895 5898 5899 5900 5903 5904 5906 5908 5909 5911 5913 5914 5916 5918 5919 5921 5923 5925 5926 5928 5930 5931 5932 5934 5936 5937 5939 5940 5942 5944 5946 5947 5948 5949
5726 5732 5733 5736 5739 5740 5743 5748 5749 5751 5756 5761 5767 5772 5777 5783 5789 5794 5798 5804 5807 5808 5811 5813 5818 5826 5824 5819 5821 5824 5829 5836 5842 5846 5850 5852 5854 5856 5858 5862 5864 5866 5870 5873 5875 5878 5881 5884 5884 5885 5889 5892 5894 5896 5897 5899 5901 5902 5904 5906 5908 5910 5911 5912 5914 5916 5917 5919 5921 5922 5924 5926 5928 5930 5931 5933 5935 5936 5938 5939 5941 5942 5944 5946 5947 5948
5723 5725 5726 5730 5733 5736 5740 5743 5746 5749 5752 5755 5760 5766 5770 5776 5784 5789 5794 5799 5801 5804 5809 5811 5814 5821 5820 5813 5815 5819 5824 5833 5839 5842 5845 5848 5849 5852 5855 5859 5861 5863 5867 5871 5873 5875 5876 5878 5880 5883 5886 5890 5892 5893 5896 5897 5899 5900 5902 5904 5906 5907 5909 5910 5912 5914 5915 5917 5918 5920 5922 5924 5926 5928 5930 5932 5934 5935 5937 5938 5940 5941 5943 5944 5946 5947
5717 5718 5719 5722 5725 5730 5736 5738 5740 5743 5744 5747 5754 5760 5766 5771 5777 5782 5788 5790 5791 5794 5802 5807 5810 5816 5818 5814 5813 5814 5819 5830 5836 5838 5841 5844 5845 5848 5852 5854 5856 5858 5861 5866 5870 5872 5872 5873 5878 5882 5885 5887 5889 5891 5893 5895 5896 5898 5900 5902 5904 5905 5907 5909 5910 5912 5913 5915 5916 5918 5920 5922 5924 5927 5929 5931 5932 5934 5935 5937 5938 5940 5941 5942 5944 5946
5706 5709 5711 5714 5717 5723 5728 5729 5730 5732 5733 5738 5746 5753 5761 5767 5771 5776 5779 5780 5783 5789 5794 5800 5806 5812 5815 5816 5814 5812 5816 5826 5835 5837 5839 5841 5843 5846 5847 5847 5851 5854 5857 5861 5865 5867 5868 5869 5874 5880 5882 5885 5887 5888 5890 5892 5894 5895 5897 5899 5901 5903 5905 5907 5908 5910 5912 5913 5914 5917 5919 5921 5923 5925 5927 5928 5930 5931 5933 5935 5937 5938 5940 5941 5943 5944
5697 5699 5703 5708 5711 5717 5722 5723 5724 5727 5729 5734 5739 5743 5747 5754 5761 5766 5768 5771 5780 5786 5788 5794 5801 5805 5809 5813 5812 5811 5814 5821 5828 5831 5832 5834 5837 5839 5840 5843 5848 5852 5855 5860 5863 5864 5866 5868 5872 5877 5879 5882 5884 5884 5885 5888 5891 5893 5895 5896 5898 5900 5903 5905 5907 5909 5910 5911 5913 5915 5917 5919 5921 5922 5924 5925 5927 5929 5931 5933 5935 5937 5938 5940 5941 5943
5686 5689 5695 5701 5704 5709 5714 5716 5718 5720 5724 5728 5732 5735 5738 5744 5748 5753 5760 5767 5774 5778 5783 5791 5797 5799 5805 5810 5807 5806 5808 5812 5819 5824 5825 5827 5830 5830 5834 5840 5846 5851 5855 5859 5862 5863 5865 5867 5870 5874 5877 5879 5880 5881 5882 5885 5888 5890 5892 5894 5896 5898 5901 5903 5905 5907 5909 5909 5911 5913 5915 5916 5918 5919 5921 5923 5924 5926 5928 5930 5932 5934 5936 5938 5940 5941
5679 5682 5688 5693 5695 5698 5702 5708 5711 5713 5718 5722 5726 5730 5734 5739 5743 5747 5754 5761 5765 5771 5778 5784 5789 5793 5799 5803 5802 5802 5804 5807 5814 5820 5821 5824 5827 5828 5833 5839 5843 5847 5850 5853 5856 5859 5861 5864 5867 5870 5873 5875 5876 5878 5880 5883 5886 5888 5890 5892 5894 5895 5898 5901 5903 5906 5907 5908 5909 5911 5912 5913 5915 5917 5919 5921 5922 5924 5926 5928 5930 5932 5934 5935 5937 5939
5674 5677 5682 5685 5687 5689 5695 5703 5706 5709 5713 5717 5720 5725 5729 5734 5739 5743 5747 5753 5758 5765 5772 5777 5781 5786 5790 5793 5793 5796 5801 5804 5809 5813 5816 5820 5824 5826 5830 5834 5836 5838 5840 5842 5845 5848 5851 5856 5861 5865 5868 5871 5873 5876 5877 5880 5883 5886 5887 5890 5892 5893 5895 5898 5901 5904 5905 5906 5907 5908 5910 5911 5912 5914 5916 5918 5920 5921 5923 5925 5927 5929 5931 5933 5934 5937
5671 5673 5676 5678 5680 5682 5690 5698 5703 5707 5710 5711 5714 5719 5724 5729 5733 5735 5740 5746 5751 5757 5765 5770 5772 5777 5783 5785 5784 5789 5797 5800 5803 5807 5811 5816 5820 5823 5827 5829 5831 5833 5835 5837 5841 5844 5847 5852 5856 5860 5864 5868 5871 5873 5875 5877 5880 5882 5885 5887 5890 5892 5893 5895 5898 5901 5903 5904 5905 5906 5907 5908 5910 5912 5913 5915 5917 5919 5921 5923 5925 5926 5928 5930 5932 5934
5669 5669 5671 5673 5674 5678 5684 5690 5696 5701 5700 5700 5707 5715 5719 5723 5728 5732 5737 5743 5747 5752 5758 5762 5765 5772 5778 5779 5778 5784 5793 5797 5800 5804 5809 5813 5817 5820 5823 5825 5828 5831 5833 5836 5840 5844 5847 5851 5854 5858 5861 5865 5868 5871 5873 5875 5878 5880 5882 5885 5887 5889 5890 5892 5895 5898 5900 5901 5903 5904 5905 5906 5907 5909 5911 5913 5914 5916 5918 5920 5922 5924 5926 5927 5929 5930
5665 5667 5669 5669 5670 5673 5678 5683 5687 5688 5687 5692 5703 5711 5715 5719 5724 5728 5733 5739 5745 5749 5752 5754 5760 5765 5767 5769 5773 5781 5790 5796 5799 5802 5806 5811 5813 5814 5816 5820 5824 5827 5829 5833 5837 5841 5844 5847 5851 5855 5858 5862 5865 5869 5871 5872 5875 5877 5878 5880 5883 5885 5887 5889 5892 5894 5897 5899 5900 5902 5903 5904 5905 5906 5908 5910 5912 5913 5915 5917 5920 5921 5923 5924 5925 5927
5663 5665 5666 5666 5666 5669 5674 5676 5677 5678 5682 5690 5701 5707 5710 5714 5717 5720 5725 5733 5738 5742 5744 5748 5753 5756 5758 5763 5771 5779 5787 5793 5796 5799 5802 5804 5805 5807 5811 5815 5819 5822 5825 5828 5833 5837 5840 5844 5847 5851 5855 5858 5862 5865 5867 5869 5872 5874 5875 5877 5880 5883 5885 5887 5889 5891 5894 5896 5898 5900 5901 5901 5903 5904 5905 5907 5909 5911 5912 5914 5916 5918 5919 5921 5923 5925
5659 5661 5663 5664 5664 5666 5669 5669 5669 5673 5681 5689 5698 5704 5706 5708 5712 5716 5721 5725 5730 5735 5739 5743 5748 5752 5754 5759 5768 5777 5784 5790 5792 5794 5795 5795 5799 5805 5810 5813 5816 5818 5821 5825 5829 5833 5837 5840 5844 5848 5852 5856 5859 5862 5864 5867 5869 5871 5872 5875 5877 5880 5882 5884 5886 5889 5891 5893 5896 5897 5898 5899 5900 5902 5903 5905 5906 5908 5909 5911 5913 5915 5916 5918 5920 5922
5656 5657 5660 5661 5662 5663 5665 5666 5668 5672 5680 5688 5695 5699 5700 5704 5709 5713 5716 5721 5728 5733 5735 5738 5742 5746 5749 5755 5764 5773 5779 5784 5788 5788 5787 5790 5798 5805 5808 5811 5813 5815 5818 5821 5825 5829 5833 5837 5840 5844 5848 5853 5856 5858 5861 5864 5866 5868 5870 5872 5874 5877 5879 5881 5884 5887 5889 5891 5893 5895 5896 5897 5898 5900 5901 5902 5903 5905 5906 5908 5910 5911 5913 5915 5917 5919
5652 5654 5656 5657 5659 5661 5662 5663 5665 5668 5675 5683 5688 5690 5693 5699 5704 5707 5709 5715 5723 5727 5727 5730 5736 5740 5745 5752 5761 5766 5772 5778 5781 5781 5783 5789 5796 5801 5804 5807 5810 5812 5815 5817 5821 5825 5829 5833 5836 5841 5845 5849 5852 5855 5858 5861 5863 5865 5868 5870 5872 5874 5876 5879 5882 5885 5886 5888 5890 5892 5893 5894 5896 5897 5898 5899 5901 5902 5904 5905 5907 5908 5910 5911 5913 5915
5649 5651 5653 5654 5656 5658 5658 5659 5661 5664 5670 5675 5679 5683 5688 5694 5699 5702 5703 5706 5712 5717 5719 5725 5731 5735 5741 5749 5756 5760 5766 5771 5774 5776 5781 5787 5791 5796 5800 5803 5805 5808 5811 5814 5817 5821 5825 5829 5834 5838 5842 5845 5849 5852 5855 5857 5860 5862 5865 5868 5870 5871 5873 5877 5880 5882 5884 5886 5888 5889 5890 5891 5893 5895 5896 5897 5898 5899 5901 5902 5904 5905 5907 5908 5910 5912
5646 5647 5648 5650 5652 5654 5655 5656 5658 5661 5665 5669 5673 5678 5684 5689 5694 5696 5697 5700 5706 5711 5714 5720 5726 5731 5737 5744 5750 5756 5761 5766 5771 5776 5780 5783 5787 5792 5796 5798 5802 5805 5808 5810 5814 5817 5821 5825 5830 5835 5839 5841 5844 5848 5851 5853 5856 5859 5862 5866 5868 5868 5871 5875 5877 5879 5881 5882 5884 5886 5887 5889 5891 5892 5893 5894 5895 5896 5898 5899 5901 5902 5904 5905 5907 5909
5642 5643 5644 5645 5648 5651 5652 5653 5656 5658 5660 5663 5668 5673 5678 5682 5686 5688 5690 5695 5701 5704 5707 5713 5720 5725 5732 5739 5746 5752 5758 5764 5770 5773 5775 5778 5783 5788 5790 5794 5798 5801 5804 5807 5810 5813 5817 5821 5825 5830 5834 5837 5839 5844 5847 5849 5852 5855 5859 5863 5865 5867 5869 5872 5874 5875 5877 5879 5881 5883 5884 5886 5888 5889 5890 5891 5891 5893 5895 5896 5898 5900 5901 5903 5904 5906
5638 5638 5639 5641 5643 5646 5648 5650 5653 5654 5654 5658 5663 5667 5672 5676 5680 5682 5685 5689 5694 5698 5702 5707 5713 5719 5726 5734 5742 5748 5754 5761 5766 5769 5769 5773 5779 5783 5786 5790 5794 5797 5800 5803 5806 5809 5813 5816 5820 5825 5829 5832 5835 5840 5843 5845 5848 5851 5855 5859 5864 5866 5866 5867 5870 5872 5874 5876 5878 5880 5881 5883 5885 5885 5886 5887 5888 5890 5892 5894 5895 5897 5899 5900 5902 5904
5634 5634 5635 5637 5639 5642 5644 5646 5648 5648 5649 5654 5659 5663 5667 5671 5675 5679 5682 5685 5690 5695 5698 5703 5708 5713 5720 5729 5738 5744 5749 5756 5761 5763 5764 5769 5776 5779 5782 5786 5790 5793 5796 5799 5802 5806 5809 5811 5816 5820 5823 5826 5830 5834 5837 5840 5843 5847 5851 5857 5861 5861 5861 5863 5867 5869 5871 5873 5875 5876 5878 5880 5881 5882 5883 5884 5885 5887 5889 5891 5893 5895 5896 5898 5899 5901
5631 5631 5632 5633 5635 5637 5639 5640 5642 5644 5647 5651 5654 5658 5663 5666 5669 5673 5677 5680 5685 5690 5694 5699 5704 5709 5716 5726 5734 5739 5744 5750 5755 5758 5760 5766 5772 5775 5779 5782 5786 5789 5792 5795 5798 5802 5804 5807 5811 5815 5818 5821 5824 5827 5831 5835 5838 5843 5848 5853 5855 5854 5856 5860 5863 5865 5867 5870 5872 5873 5875 5877 5878 5879 5880 5881 5883 5884 5886 5888 5890 5892 5893 5895 5896 5898
5629 5629 5629 5630 5630 5631 5634 5636 5638 5640 5643 5646 5649 5652 5657 5662 5665 5668 5672 5676 5681 5686 5690 5695 5701 5706 5713 5721 5728 5734 5739 5744 5749 5753 5756 5762 5767 5771 5775 5779 5782 5785 5788 5791 5794 5797 5801 5804 5807 5810 5813 5816 5819 5822 5826 5830 5834 5839 5843 5846 5847 5849 5852 5856 5859 5861 5864 5867 5869 5870 5872 5874 5875 5876 5877 5879 5880 5882 5883 5885 5887 5889 5890 5892 5894 5896
5627 5627 5627 5627 5627 5629 5631 5633 5635 5636 5638 5641 5644 5648 5652 5657 5661 5664 5669 5674 5679 5683 5687 5692 5697 5704 5711 5717 5724 5729 5734 5739 5744 5748 5753 5759 5763 5767 5771 5775 5779 5782 5784 5787 5791 5794 5797 5801 5804 5807 5810 5812 5815 5819 5822 5825 5829 5834 5837 5839 5842 5845 5848 5851 5855 5858 5861 5863 5865 5867 5869 5870 5871 5873 5874 5876 5877 5879 5880 5882 5883 5885 5887 5889 5891 5893
5624 5624 5624 5624 5625 5626 5627 5629 5630 5632 5635 5638 5641 5645 5648 5652 5656 5661 5666 5671 5675 5680 5685 5689 5694 5701 5708 5713 5719 5724 5729 5734 5740 5745 5750 5756 5760 5763 5767 5771 5775 5778 5781 5784 5788 5791 5795 5798 5801 5804 5807 5810 5813 5816 5818 5822 5825 5829 5832 5834 5837 5841 5844 5847 5851 5854 5857 5860 5862 5864 5866 5867 5868 5870 5871 5873 5874 5876 5877 5879 5880 5882 5884 5886 5888 5889
5622 5622 5621 5621 5622 5623 5624 5625 5627 5630 5632 5634 5637 5640 5644 5648 5653 5659 5664 5668 5671 5676 5681 5685 5690 5697 5704 5709 5714 5720 5725 5730 5736 5741 5747 5753 5757 5761 5764 5768 5772 5775 5777 5781 5784 5788 5791 5795 5798 5801 5803 5806 5809 5812 5814 5818 5821 5824 5827 5830 5833 5836 5840 5844 5847 5850 5853 5856 5858 5860 5862 5864 5865 5867 5868 5870 5871 5872 5874 5876 5878 5879 5882 5883 5884 5886
5620 5620 5620 5620 5620 5621 5621 5622 5624 5626 5629 5631 5634 5638 5641 5646 5651 5656 5660 5665 5668 5673 5677 5682 5687 5694 5700 5704 5710 5715 5720 5725 5731 5738 5744 5749 5753 5757 5761 5765 5768 5771 5774 5777 5781 5785 5788 5792 5795 5798 5800 5802 5805 5807 5810 5813 5817 5820 5823 5826 5829 5833 5837 5841 5844 5847 5850 5852 5855 5857 5859 5860 5862 5864 5865 5867 5868 5870 5872 5874 5875 5877 5878 5880 5881 5884
5620 5619 5619 5619 5619 5619 5619 5620 5623 5625 5627 5629 5633 5637 5640 5644 5649 5652 5656 5661 5665 5669 5673 5678 5683 5690 5696 5701 5706 5711 5716 5721 5728 5734 5740 5745 5749 5753 5757 5761 5764 5768 5771 5774 5778 5781 5785 5788 5791 5794 5797 5799 5801 5803 5806 5809 5812 5815 5818 5822 5825 5829 5834 5837 5840 5843 5846 5849 5851 5854 5855 5857 5859 5861 5862 5864 5866 5868 5870 5871 5872 5874 5876 5877 5880 5882
5621 5620 5618 5618 5619 5620 5620 5621 5622 5624 5626 5628 5631 5635 5639 5642 5646 5650 5654 5658 5663 5667 5670 5674 5679 5686 5692 5697 5702 5707 5712 5718 5724 5730 5736 5741 5745 5749 5754 5757 5761 5764 5768 5771 5775 5778 5782 5784 5787 5790 5793 5796 5798 5800 5803 5805 5808 5811 5814 5817 5821 5826 5831 5834 5837 5840 5843 5845 5848 5850 5852 5854 5855 5857 5859 5861 5863 5865 5867 5868 5870 5871 5873 5875 5878 5879